(110871) = 2001 UH94

Discovered at Haleakala on 2001-10-19 by NEAT.

Orbit

Orbit type: Main Belt

Note: WebGL enabled browser required.

epoch2024-03-31.0
epoch JD2460400.5
perihelion date2022-09-16.70551
perihelion JD2459839.20551
argument of perihelion (°)146.94654
ascending node (°)180.60891
inclination (°)17.41981
eccentricity0.2191312
perihelion distance (AU)2.4048074
Tisserand w.r.t. Jupiter3.1
ΔV w.r.t. Earth (km/sec)11.1
semimajor axis (AU)3.0796564
mean anomaly (°)102.36258
mean daily motion (°/day)0.18236880
aphelion distance (AU)3.755
period (years)5.4
P-vector [x]0.84364521
P-vector [y]-0.53421470
P-vector [z]-0.05364158
Q-vector [x]0.53689165
Q-vector [y]0.83881727
Q-vector [z]0.09018284
absolute magnitude14.74
phase slope0.15
uncertainty0
referenceMPEC 2024-D105
observations used1270
oppositions18
arc length (days)8654
first opposition used2000
last opposition used2024
residual rms (arc-secs)0.62
perturbers coarse indicatorM-v
perturbers precise indicator003Ek
first observation date used2000-06-11.0
last observation date used2024-02-20.0
computer nameMPCLINUX
JD of orbit computation2456700.323619
perihelion JD uncertainty (days)1.0239E-04
argument of perihelion uncertainty (°)2.7321E-05
ascending node uncertainty (°)1.9239E-05
inclination uncertainty (°)8.2720E-06
eccentricity uncertainty 5.6120E-08
perihelion distance uncertainty (AU)1.7525E-07
Minimum Orbit Intersection Distances (in AU)
for orbit epoch: 2460400.5, reference: E2024-DA5
Mercury2.01902
Venus1.69889
Earth1.41343
Mars1.06073
Jupiter1.76905
Saturn5.60971
Uranus14.7438
Neptune26.6788

Observations

1313 total observations over interval: 2000 06 11.30737 – 2024 02 20.311633
These data are available for download (format description).

Date (UT) J2000 RA J2000 Dec Magn Location Ref
2000 06 11.30737 18 46 31.51 +04 04 13.5 18.6   704 – Lincoln Laboratory ETS, New Mexico MPS 44513
2000 06 11.31975 18 46 31.05 +04 04 15.8 18.6   704 – Lincoln Laboratory ETS, New Mexico MPS 44513
2000 06 11.33219 18 46 30.60 +04 04 19.3 19.1   704 – Lincoln Laboratory ETS, New Mexico MPS 44513
2000 06 11.34457 18 46 30.11 +04 04 21.4 19.0   704 – Lincoln Laboratory ETS, New Mexico MPS 44513
2000 08 03.22271 18 12 40.13 +01 43 22.4 18.7   704 – Lincoln Laboratory ETS, New Mexico MPS 44513
2000 08 03.23699 18 12 39.82 +01 43 14.6 19.3   704 – Lincoln Laboratory ETS, New Mexico MPS 44513
2000 08 03.25127 18 12 39.58 +01 43 07.7 18.8   704 – Lincoln Laboratory ETS, New Mexico MPS 44513
2000 08 03.26548 18 12 39.36 +01 43 01.1 19.1   704 – Lincoln Laboratory ETS, New Mexico MPS 44513
2000 08 03.27971 18 12 39.05 +01 42 54.4 19.3   704 – Lincoln Laboratory ETS, New Mexico MPS 44513
2001 08 18.47502 03 25 30.54 +09 15 46.9 19.6   644 – Palomar Mountain/NEAT MPS 44513
2001 08 18.48555 03 25 31.03 +09 15 44.2 19.6   644 – Palomar Mountain/NEAT MPS 44513
2001 08 18.49619 03 25 31.56 +09 15 41.5 19.7   644 – Palomar Mountain/NEAT MPS 44513
2001 08 28.40952 03 32 50.28 +08 29 48.5 20.4   644 – Palomar Mountain/NEAT MPS 44513
2001 08 28.43005 03 32 51.06 +08 29 42.3 19.9   644 – Palomar Mountain/NEAT MPS 44513
2001 08 28.45136 03 32 51.82 +08 29 35.6 20.0   644 – Palomar Mountain/NEAT MPS 44513
2001 09 17.44600 03 41 11.60 +06 18 05.6 19.3 R 699 – Lowell Observatory-LONEOS MPS 44513
2001 09 17.46173 03 41 11.87 +06 18 00.4   699 – Lowell Observatory-LONEOS MPS 44513
2001 09 17.47747 03 41 11.89 +06 17 52.3   699 – Lowell Observatory-LONEOS MPS 44513
2001 09 17.49325 03 41 12.04 +06 17 44.6   699 – Lowell Observatory-LONEOS MPS 44513
2001 09 25.41367 03 41 49.97 +05 13 03.4 19.4   704 – Lincoln Laboratory ETS, New Mexico MPS 55081
2001 09 25.44444 03 41 49.86 +05 12 46.1 20.0   704 – Lincoln Laboratory ETS, New Mexico MPS 55081
2001 09 25.45903 03 41 49.89 +05 12 37.6 19.6   704 – Lincoln Laboratory ETS, New Mexico MPS 55081
2001 09 25.47370 03 41 49.82 +05 12 30.6 18.8   704 – Lincoln Laboratory ETS, New Mexico MPS 55081
2001 10 16.32551 03 36 07.15 +02 03 15.5 19.1   704 – Lincoln Laboratory ETS, New Mexico MPS 44513
2001 10 16.34124 03 36 06.67 +02 03 06.7 19.3   704 – Lincoln Laboratory ETS, New Mexico MPS 44513
2001 10 16.37276 03 36 05.66 +02 02 48.8 19.5   704 – Lincoln Laboratory ETS, New Mexico MPS 44513
2001 10 16.38917 03 36 05.09 +02 02 38.8 19.6   704 – Lincoln Laboratory ETS, New Mexico MPS 44513
2001 10 19.40738 03 34 27.31 +01 34 55.4 20.1   608 – Haleakala-AMOS MPS 41162
2001 10 19.41816 03 34 26.91 +01 34 50.1 20.1   608 – Haleakala-AMOS MPS 41162
2001 10 19.42877 03 34 26.53 +01 34 43.8 19.9   608 – Haleakala-AMOS MPS 41162
2001 10 23.51613 03 31 57.90 +00 57 53.5 19.5   644 – Palomar Mountain/NEAT MPS 41162
2001 10 23.52672 03 31 57.49 +00 57 47.9 19.5   644 – Palomar Mountain/NEAT MPS 41162
2001 10 23.53725 03 31 57.08 +00 57 42.6 19.4   644 – Palomar Mountain/NEAT MPS 41162
2001 10 28.39998 03 28 41.02 +00 15 36.2 19.0   644 – Palomar Mountain/NEAT MPS 44513
2001 10 28.42330 03 28 40.01 +00 15 24.7 19.3   644 – Palomar Mountain/NEAT MPS 44513
2001 10 28.44441 03 28 39.09 +00 15 14.1 19.1   644 – Palomar Mountain/NEAT MPS 44513
2001 11 14.41150 03 15 43.73 -01 46 53.8 19.8   608 – Haleakala-AMOS MPS 44513
2001 11 14.42197 03 15 43.21 -01 46 57.6 20.2   608 – Haleakala-AMOS MPS 44513
2001 11 14.43268 03 15 42.66 -01 47 01.4 19.9   608 – Haleakala-AMOS MPS 44513
2001 11 17.26976 03 13 31.53 -02 02 24.0 18.9 R 699 – Lowell Observatory-LONEOS MPS 44513
2001 11 17.29484 03 13 30.43 -02 02 32.0   699 – Lowell Observatory-LONEOS MPS 44513
2001 11 17.31997 03 13 29.26 -02 02 40.5   699 – Lowell Observatory-LONEOS MPS 44513
2001 11 17.35396 03 13 27.56 -02 02 48.6   699 – Lowell Observatory-LONEOS MPS 44513
2001 12 07.21403 03 00 31.43 -03 00 56.0 18.8   704 – Lincoln Laboratory ETS, New Mexico MPS 44513
2001 12 07.22903 03 00 30.96 -03 00 57.5 19.3   704 – Lincoln Laboratory ETS, New Mexico MPS 44513
2001 12 07.24399 03 00 30.47 -03 00 57.2 19.2   704 – Lincoln Laboratory ETS, New Mexico MPS 44513
2001 12 07.25896 03 00 29.98 -03 00 57.6 19.4   704 – Lincoln Laboratory ETS, New Mexico MPS 44513
2001 12 07.27394 03 00 29.53 -03 00 59.3 19.4   704 – Lincoln Laboratory ETS, New Mexico MPS 44513
2001 12 14.16288 02 57 31.72 -03 01 06.0 19.0 R 699 – Lowell Observatory-LONEOS MPS 44513
2001 12 14.18482 02 57 31.16 -03 01 07.3   699 – Lowell Observatory-LONEOS MPS 44513
2001 12 14.20685 02 57 30.71 -03 01 05.1   699 – Lowell Observatory-LONEOS MPS 44513
2001 12 14.22891 02 57 30.19 -03 01 03.9   699 – Lowell Observatory-LONEOS MPS 44513
2004 03 14.27719 11 06 59.78 +00 15 37.5 20.4 V 703 – Catalina Sky Survey MPS 101161
2004 03 14.28984 11 06 59.19 +00 15 42.9 20.1 V 703 – Catalina Sky Survey MPS 101161
2004 03 14.30245 11 06 58.71 +00 15 47.5 20.3 V 703 – Catalina Sky Survey MPS 101161
2004 03 14.38046 11 06 55.53 +00 16 23.7 19.4 V 703 – Catalina Sky Survey MPS 101161
2004 03 18.29683 11 04 20.51 +00 46 22.4 19.3   704 – Lincoln Laboratory ETS, New Mexico MPS 102148
2004 03 18.30846 11 04 20.06 +00 46 27.0 20.1   704 – Lincoln Laboratory ETS, New Mexico MPS 102148
2004 03 18.32018 11 04 19.55 +00 46 32.7 20.2   704 – Lincoln Laboratory ETS, New Mexico MPS 102148
2004 03 18.33216 11 04 19.03 +00 46 38.1 19.9   704 – Lincoln Laboratory ETS, New Mexico MPS 102148
2004 03 18.34363 11 04 18.61 +00 46 43.3 20.0   704 – Lincoln Laboratory ETS, New Mexico MPS 102148
2004 03 20.22980 11 03 05.91 +01 01 07.1 19.2   704 – Lincoln Laboratory ETS, New Mexico MPS 102148
2004 03 20.24137 11 03 05.49 +01 01 12.2 19.8   704 – Lincoln Laboratory ETS, New Mexico MPS 102148
2004 03 20.26513 11 03 04.50 +01 01 23.1 19.8   704 – Lincoln Laboratory ETS, New Mexico MPS 102148
2004 03 20.27697 11 03 03.96 +01 01 28.0 20.2   704 – Lincoln Laboratory ETS, New Mexico MPS 102148
2005 05 06.29891 15 37 06.08 +00 46 59.3 18.4   704 – Lincoln Laboratory ETS, New Mexico MPS 133912
2005 05 06.30908 15 37 05.61 +00 47 03.9 19.1   704 – Lincoln Laboratory ETS, New Mexico MPS 133912
2005 05 06.31918 15 37 05.22 +00 47 07.8 19.6   704 – Lincoln Laboratory ETS, New Mexico MPS 133912
2005 05 06.33954 15 37 04.34 +00 47 18.4 19.1   704 – Lincoln Laboratory ETS, New Mexico MPS 133912
2005 05 11.34411 15 33 25.66 +01 22 42.7 18.9 R 703 – Catalina Sky Survey MPS 133912
2005 05 11.35099 15 33 25.31 +01 22 45.7 18.8 R 703 – Catalina Sky Survey MPS 133912
2005 05 11.35790 15 33 24.99 +01 22 48.3 18.6 R 703 – Catalina Sky Survey MPS 133912
2005 05 11.36480 15 33 24.65 +01 22 51.5 18.6 R 703 – Catalina Sky Survey MPS 133912
2005 05 13.31203 15 31 57.70 +01 35 41.3 18.8 R 699 – Lowell Observatory-LONEOS MPS 134773
2005 05 13.33732 15 31 56.43 +01 35 52.3   699 – Lowell Observatory-LONEOS MPS 134773
2005 05 13.36203 15 31 55.32 +01 36 01.2   699 – Lowell Observatory-LONEOS MPS 134773
2005 05 13.38550 15 31 54.32 +01 36 09.8   699 – Lowell Observatory-LONEOS MPS 134773
2005 05 20.21850 15 26 46.66 +02 16 20.8 18.7   644 – Palomar Mountain/NEAT MPS 135319
2005 05 20.23989 15 26 45.69 +02 16 27.6 18.7   644 – Palomar Mountain/NEAT MPS 135319
2005 05 20.26020 15 26 44.75 +02 16 34.0 18.8   644 – Palomar Mountain/NEAT MPS 135319
2005 05 31.29827 15 18 50.90 +03 03 15.7 19.4 V 703 – Catalina Sky Survey MPS 135579
2005 05 31.30631 15 18 50.54 +03 03 17.4 19.4 V 703 – Catalina Sky Survey MPS 135579
2005 05 31.31436 15 18 50.18 +03 03 19.5 19.4 V 703 – Catalina Sky Survey MPS 135579
2005 05 31.32244 15 18 49.86 +03 03 20.6 18.9 V 703 – Catalina Sky Survey MPS 135579
2005 06 06.22849 15 15 05.62 +03 18 14.6 19.0   704 – Lincoln Laboratory ETS, New Mexico MPS 135915
2005 06 06.23832 15 15 05.23 +03 18 16.1 19.7   704 – Lincoln Laboratory ETS, New Mexico MPS 135915
2005 06 06.24826 15 15 04.92 +03 18 16.8 19.3   704 – Lincoln Laboratory ETS, New Mexico MPS 135915
2005 06 06.25814 15 15 04.51 +03 18 17.7 19.2   704 – Lincoln Laboratory ETS, New Mexico MPS 135915
2005 06 07.32126 15 14 27.10 +03 20 12.8 19.1 R 699 – Lowell Observatory-LONEOS MPS 135915
